Location: ????????
(55.3939°N, 37.4780°E)
Time: 14:10:48
(UTC+00:00)

MOZ.5/SAFIR/RUBIN 5/SL-8 - Pass Details

Date: 14 April 2026
Orbit: 665 x 693 km, 98.3° (Epoch: 17 May)

Event Time Altitude Azimuth Distance (km) Brightness Sun altitude
Exits shadow 23:33:27 26° 156° (SSE) 1,360 5.0 -20.0°
Maximum altitude 23:36:08 81° 73° (ENE) 704 3.8 -19.8°
Drops below altitude 10° 23:40:50 10° 346° (NNW) 2,142 6.9 -19.4°
Sets 23:43:04 0° 345° (NNW) 3,058 7.7 -19.3°
